Regional Weather Roundup
Issued by NWS

Home | Current Version | Previous Version | Graphics & Text | Print | Product List | Glossary On
Versions: 1 2 3 4 5 6 7 8 9 10 11 12 13 14 15 16 17 18 19 20 21 22 23 24 25 26 27 28 29 30 31 32 33 34 35 36 37 38 39 40 41 42 43 44 45 46 47 48 49 50
000
ASUS44 KMEG 170000
RWRTN
TENNESSEE HOURLY STATE WEATHER ROUNDUP
NATIONAL WEATHER SERVICE MEMPHIS TN
600 PM CST TUE JAN 16 2018

TNZ002-004-019-021-049-052-054-088>092-170100-
WEST TENNESSEE

CITY           SKY/WX    TMP DP  RH WIND       PRES   REMARKS
MEMPHIS INTL   FAIR      13   2  61 N9        30.66S WCI   1
NWS MEMPHIS      N/A     11 N/A N/A MISG        N/A
JACKSON        FAIR       8  -2  63 NW8       30.66S WCI  -4
DYERSBURG      FAIR       4  -4  69 N3        30.69S
$$

TNZ008-025-027-028-033-062-065-066-170100-
NORTH MIDDLE TENNESSEE

CITY           SKY/WX    TMP DP  RH WIND       PRES   REMARKS
NASHVILLE      FAIR      11   0  61 N10       30.60R WCI  -3
CLARKSVILLE    FAIR       7  -4  60 NW7       30.62R WCI  -5
SMYRNA         FAIR       9   2  73 N8        30.61R WCI  -3
CROSSVILLE     CLOUDY    11   5  77 N8        30.42R WCI  -1
$$

TNZ061-075-076-078-094-096-097-170100-
SOUTH MIDDLE TENNESSEE

CITY           SKY/WX    TMP DP  RH WIND       PRES   REMARKS
WINCHESTER       N/A     10   7  85 NW6       30.52R WCI   1
$$

TNZ017-018-042-046-047-170100-
NORTHEAST TENNESSEE

CITY           SKY/WX    TMP DP  RH WIND       PRES   REMARKS
TRI CITIES     LGT SNOW  29  28  96 NW9       30.33R FOG     WCI  20
$$

TNZ012-013-036-069-073-074-170100-
CENTRAL EAST TENNESSEE

CITY           SKY/WX    TMP DP  RH WIND       PRES   REMARKS
KNOXVILLE      SNOW      22  18  85 N6        30.44R VSB 1/2 WCI  14
OAK RIDGE      LGT SNOW  22  18  85 VRB3      30.47R FOG
$$

TNZ083-085-099-170100-
SOUTHEAST TENNESSEE

CITY           SKY/WX    TMP DP  RH WIND       PRES   REMARKS
CHATTANOOGA    FLURRIES  23  16  74 NW10      30.48R WCI  12
$$

SKY/WX REPORTED AS FAIR MEANS FEW OR NO CLOUDS BELOW
12 THOUSAND FEET.





USA.gov is the U.S. government's official web portal to all federal, state and local government web resources and services.